{"data":{"norad_id":48219,"intl_designator":"2021-031K","name":"ONEWEB-0183","alt_names":[],"object_type":"PAYLOAD","status":"ACTIVE","operator":null,"country":"UK","launch_date":"2021-04-25","launch_site_code":"VOSTO","launch_vehicle":null,"mission":null,"orbit_class":"UNKNOWN","rcs_meters":null,"size_class":null,"mass_kg":null,"dimensions":null,"purposes":["comms"],"wikipedia_slug":null,"has_3d_model":false,"image_url":null,"decayed_at":null,"tle_current":{"epoch":"2026-09-19T19:20:22.247520Z","epoch_age_seconds":85771,"freshness":"FRESH","line1":"1 48219U 21031K   26262.80581305 -.00000018  00000+0 -82348-4 0  9998","line2":"2 48219  87.8899 270.8321 0001983  96.1573 263.9783 13.14501297260751","mean_motion":13.14501297,"eccentricity":0.0001983,"inclination_deg":87.8899,"raan_deg":270.8321,"arg_perigee_deg":96.1573,"mean_anomaly_deg":263.9783,"bstar":-8.2348e-5,"rev_number":26075,"period_min":109.54724832044,"perigee_km":1204.292241674,"apogee_km":1207.3000295556,"semimajor_km":7583.9331356148,"source":"CELESTRAK","updated_at":"2026-09-20T09:00:44.594011Z"}}}